Сафоново

Россия / Архангельская область     65°40′18″N   47°41′19″E
темп.,
°C
ветер,
м/с
пор.,
м/с
влажн.,
%
обл.,
%
осадки,
мм/ч
давл.,
гПа
погр.,
м
23 апреля, пт
пт2300:00+3ююв41295100 0.1 1009757
03:00+2юз41097100 1.3 1010706
06:00+2юз4989100 0.1 1012860
09:00+3юз41089100 0.2 1014749
12:00+6юз477298 0.2 10161279
15:00+7юз466578 0.4 10171431
18:00+6ююв11775 0.0 101911
21:00+2вюв279088 0.0 102091
24 апреля, сб
сб2400:00+3вюв399177 0.0 1019158
03:00+4вюв3990100 0.0 1018204
06:00+6юв3128765 0.0 1018370
09:00+11ююв4117245 0.0 1017672
12:00+14ююв585685 0.0 10171404
15:00+14юв5752100 0.0 10171574
18:00+12юв4105874 0.0 1016466
21:00+8юв412695 0.0 1017418
25 апреля, вс
вс2500:00+5вюв29845 0.0 1017181
03:00+4вюв3987100 0.0 1016221
06:00+6в31180100 0.0 1014370
09:00+9вюв4966100 0.0 10131198
12:00+10юв4862100 0.1 10121391
15:00+10вюв4863100 0.3 10111369
18:00+9вюв3766100 0.1 10101084
21:00+7в3977100 0.3 1009483
26 апреля, пн
пн2600:00+6в388383 0.0 1008454
03:00+5всв289397 0.1 1007296
06:00+5в3689100 0.1 1006708
09:00+5в3584100 0.2 1005684
12:00+5в3588100 0.4 1004714
15:00+5вюв2488100 0.7 1004596
18:00+5в2392100 0.3 1003618
21:00+4в1290100 0.4 1003140
27 апреля, вт
вт2700:00+4в119399 0.1 100264
03:00+3ююз119296 0.2 100220
06:00+3юв1291100 0.0 1001209
09:00+4ююв2396100 0.1 1001561
12:00+4ююв2396100 0.1 1001623
15:00+4юв1397100 0.6 1001687
18:00+3ююв1397100 0.4 1000602
21:00+3ююв1399100 0.8 999532